Location: Seminole
(32.7190°N, 102.6440°W)
Time: 02:05:09
(UTC-05:00)

Meteor 2-10 - Visible Passes

Search period start: 19 April 2014 00:00
Search period end: 29 April 2014 00:00
Orbit: 738 x 870 km, 81.2° (Epoch: 17 April)

Date Brightness Start Highest point End Pass type
(mag) Time Alt. Az. Time Alt. Az. Time Alt. Az.
19 Apr 6.2 00:02:00 24° NW 00:02:00 24° NW 00:04:37 10° NNW visible
19 Apr 6.0 21:54:43 13° ENE 21:54:43 13° ENE 21:55:50 10° NE visible
19 Apr 5.5 23:35:42 35° NW 23:35:42 35° NW 23:39:09 10° N visible
20 Apr 4.7 23:09:19 54° NNW 23:09:19 54° NNW 23:13:30 10° N visible
21 Apr 4.0 22:42:50 73° NE 22:42:50 73° NE 22:47:41 10° N visible
22 Apr 4.2 22:16:12 49° ESE 22:16:38 51° E 22:21:43 10° NNE visible
22 Apr 6.6 23:57:09 13° W 23:58:46 15° WNW 00:01:44 10° NW visible
23 Apr 4.7 21:49:25 28° ESE 21:50:53 33° E 21:55:33 10° NNE visible
23 Apr 6.1 23:30:21 17° WSW 23:32:47 23° WNW 23:36:52 10° NNW visible
24 Apr 5.2 21:22:22 15° SE 21:25:11 22° E 21:29:07 10° NE visible
24 Apr 5.5 23:03:17 16° SW 23:06:52 33° WNW 23:11:35 10° NNW visible
25 Apr 5.7 20:56:51 10° ESE 20:59:32 14° E 21:02:10 10° ENE visible
25 Apr 4.8 22:35:51 10° SSW 22:40:59 51° W 22:46:03 10° N visible
26 Apr 4.1 22:09:46 10° S 22:15:08 79° W 22:20:20 10° N visible
27 Apr 4.0 21:44:01 10° S 21:49:20 68° E 21:54:28 10° NNE visible
27 Apr 7.0 23:30:37 10° W 23:31:39 11° WNW 23:32:41 10° WNW visible
28 Apr 4.4 21:18:32 10° SSE 21:23:34 44° E 21:28:26 10° NNE visible
28 Apr 6.7 23:02:20 10° WSW 23:05:38 17° WNW 23:08:52 10° NW visible
